Weather History for Truckee-Tahoe, CA

Change the Weather History Date:

Wednesday, February 22, 2012

  Actual Average Record
Temperature  
Mean Temperature 40 °F -  
Max Temperature 57 °F 43 °F 62 °F (1988)
Min Temperature 24 °F 18 °F -4 °F (2011)
Degree Days  
Heating Degree Days 24    
Moisture  
Dew Point 24 °F    
Average Humidity 75    
Maximum Humidity 100    
Minimum Humidity 23    
Precipitation  
Precipitation 0.00 in - - ()
Sea Level Pressure  
Sea Level Pressure 30.32 in    
Wind  
Wind Speed 2 mph (SSE)    
Max Wind Speed 9 mph    
Max Gust Speed -    
Visibility 10 miles    
Events      
Averages and records for this station are not official NWS values.
T = Trace of Precipitation, MM = Missing Value Source: NWS Daily Summary

Daily Weather History Graph

Daily Weather History Graph

Search for Another Location

Airport:

Trip Planner

Search our weather history database for the weather conditions in past years. The results will help you decide how hot, cold, wet, or windy it might be!

Date:

Astronomy

Feb. 22, 2012 Rise Set
Actual Time 6:43 AM PST 5:44 PM PST
Civil Twilight 6:16 AM PST 6:12 PM PST
Nautical Twilight 5:45 AM PST 6:43 PM PST
Astronomical Twilight 5:14 AM PST 7:14 PM PST
Moon 6:45 AM PST (2/22) 6:55 PM PST (2/22)
Length of Visible Light 11h 55m
Length of Day
11h 01m
New Moon, 1% of the Moon is Illuminated
Feb 22
New Moon
Feb 29
First Quarter
Mar 8
Full
Mar 14
Last Quarter
Mar 22
New

Hourly Weather History & Observations

Time (PST) Temp. Windchill Dew Point Humidity Pressure Visibility Wind Dir Wind Speed Gust Speed Precip Events Conditions
12:15 AM 28.4 °F - 26.6 °F 93% 30.45 in 10.0 mi Calm Calm - N/A   Clear
12:35 AM 28.4 °F 24.6 °F 26.6 °F 93% 30.44 in 10.0 mi SSE 3.5 mph - N/A   Clear
12:55 AM 28.4 °F 24.6 °F 26.6 °F 93% 30.44 in 10.0 mi West 3.5 mph - N/A   Clear
1:15 AM 32.0 °F 28.7 °F 28.4 °F 87% 30.45 in 10.0 mi NW 3.5 mph - N/A   Clear
1:35 AM 28.4 °F - 26.6 °F 93% 30.44 in 10.0 mi Calm Calm - N/A   Clear
1:55 AM 28.4 °F - 26.6 °F 93% 30.43 in 10.0 mi Calm Calm - N/A   Clear
2:15 AM 28.4 °F - 28.4 °F 100% 30.44 in 10.0 mi Calm Calm - N/A   Clear
2:35 AM 26.6 °F 20.0 °F 26.6 °F 100% 30.44 in 10.0 mi East 5.8 mph - N/A   Clear
2:55 AM 26.6 °F 22.6 °F 24.8 °F 93% 30.43 in 10.0 mi SW 3.5 mph - N/A   Clear
3:15 AM 26.6 °F - 26.6 °F 100% 30.43 in 10.0 mi Calm Calm - N/A   Clear
3:35 AM 28.4 °F 24.6 °F 26.6 °F 93% 30.42 in 10.0 mi East 3.5 mph - N/A   Clear
3:55 AM 26.6 °F - 24.8 °F 93% 30.42 in 10.0 mi Calm Calm - N/A   Clear
4:15 AM 28.4 °F - 26.6 °F 93% 30.43 in 10.0 mi Calm Calm - N/A   Clear
4:35 AM 26.6 °F - 26.6 °F 100% 30.44 in 10.0 mi Calm Calm - N/A   Clear
4:55 AM 24.8 °F 20.5 °F 24.8 °F 100% 30.43 in 10.0 mi SSW 3.5 mph - N/A   Clear
5:15 AM 26.6 °F - 24.8 °F 93% 30.43 in 10.0 mi Calm Calm - N/A   Clear
5:35 AM 26.6 °F - 24.8 °F 93% 30.42 in 10.0 mi Calm Calm - N/A   Clear
6:45 AM 24.8 °F - 24.8 °F 100% 30.41 in 10.0 mi Calm Calm - N/A   Scattered Clouds
7:50 AM 28.4 °F - 26.6 °F 93% 30.42 in 10.0 mi Calm Calm - N/A   Scattered Clouds
9:55 AM 39.2 °F 37.0 °F 32.0 °F 75% 30.40 in 10.0 mi NNE 3.5 mph - N/A   Mostly Cloudy
10:55 AM 48.2 °F - 28.4 °F 46% 30.37 in 10.0 mi Calm Calm - N/A   Mostly Cloudy
11:45 AM 51.8 °F - 19.4 °F 28% 30.35 in 10.0 mi Calm Calm - N/A   Mostly Cloudy
12:45 PM 53.6 °F - 17.6 °F 24% 30.31 in 10.0 mi NNE 5.8 mph - N/A   Scattered Clouds
1:55 PM 57.2 °F - 19.4 °F 23% 30.26 in 10.0 mi NNE 6.9 mph - N/A   Scattered Clouds
2:45 PM 57.2 °F - 19.4 °F 23% 30.25 in 10.0 mi East 3.5 mph - N/A   Scattered Clouds
3:50 PM 53.6 °F - 17.6 °F 24% 30.26 in 10.0 mi North 9.2 mph - N/A   Mostly Cloudy
4:55 PM 50.0 °F - 21.2 °F 32% 30.25 in 10.0 mi NNW 6.9 mph - N/A   Clear
5:15 PM 50.0 °F - 21.2 °F 32% 30.25 in 10.0 mi North 5.8 mph - N/A   Clear
5:35 PM 48.2 °F - 21.2 °F 34% 30.23 in 10.0 mi WSW 3.5 mph - N/A   Clear
5:55 PM 41.0 °F 37.1 °F 24.8 °F 53% 30.23 in 10.0 mi South 5.8 mph - N/A   Clear
6:15 PM 39.2 °F 37.0 °F 24.8 °F 56% 30.23 in 10.0 mi SE 3.5 mph - N/A   Clear
6:35 PM 37.4 °F 31.4 °F 24.8 °F 60% 30.23 in 10.0 mi SSE 8.1 mph - N/A   Unknown
6:55 PM 35.6 °F 32.8 °F 24.8 °F 65% 30.23 in 10.0 mi SSE 3.5 mph - N/A   Unknown
7:15 PM 35.6 °F 31.7 °F 24.8 °F 65% 30.23 in 10.0 mi SSE 4.6 mph - N/A   Clear
7:35 PM 32.0 °F - 24.8 °F 75% 30.23 in 10.0 mi Calm Calm - N/A   Clear
7:55 PM 35.6 °F - 24.8 °F 65% 30.23 in 10.0 mi Calm Calm - N/A   Clear
8:15 PM 32.0 °F - 24.8 °F 75% 30.23 in 10.0 mi Calm Calm - N/A   Clear
8:35 PM 32.0 °F - 24.8 °F 75% 30.24 in 10.0 mi Calm Calm - N/A   Clear
8:55 PM 32.0 °F - 24.8 °F 75% 30.25 in 10.0 mi Calm Calm - N/A   Clear
9:15 PM 28.4 °F 24.6 °F 23.0 °F 80% 30.23 in 10.0 mi SSE 3.5 mph - N/A   Clear
9:35 PM 28.4 °F 23.3 °F 24.8 °F 86% 30.22 in 10.0 mi ESE 4.6 mph - N/A   Clear
9:55 PM 28.4 °F - 24.8 °F 86% 30.23 in 10.0 mi Calm Calm - N/A   Clear
10:15 PM 26.6 °F 22.6 °F 23.0 °F 86% 30.22 in 10.0 mi SW 3.5 mph - N/A   Clear
10:35 PM 26.6 °F - 23.0 °F 86% 30.22 in 10.0 mi Calm Calm - N/A   Clear
10:55 PM 26.6 °F - 23.0 °F 86% 30.23 in 10.0 mi Calm Calm - N/A   Clear
11:15 PM 24.8 °F 19.1 °F 23.0 °F 93% 30.23 in 10.0 mi SW 4.6 mph - N/A   Clear
11:35 PM 26.6 °F 22.6 °F 23.0 °F 86% 30.22 in 10.0 mi South 3.5 mph - N/A   Clear
11:55 PM 24.8 °F 20.5 °F 23.0 °F 93% 30.23 in 10.0 mi SSE 3.5 mph - N/A   Clear